This is the latest recevied weather packets stored in our database for station/object K7KAR-2. If no packets are shown the sender has not sent any weather packets the latest 10 day(s).
| Time | Temp. | Humidity | Pressure | Rain* | Wind** | Luminosity | Snow |
|---|---|---|---|---|---|---|---|
| 1777718927 | 2.78° C | 52% | 1015.8 hPa | 0 mm | - | 0 W/m² | - |
| 1777718625 | 3.33° C | 52% | 1016.1 hPa | 0 mm | - | 0 W/m² | - |
| 1777718322 | 3.33° C | 51% | 1016 hPa | 0 mm | - | 0 W/m² | - |
| 1777718019 | 2.78° C | 52% | 1015.8 hPa | 0 mm | - | 0 W/m² | - |
| 1777717716 | 3.33° C | 51% | 1015.6 hPa | 0 mm | - | 0 W/m² | - |
| 1777717412 | 3.33° C | 50% | 1015.9 hPa | 0 mm | - | 0 W/m² | - |
| 1777717110 | 3.89° C | 49% | 1016 hPa | 0 mm | - | 0 W/m² | - |
| 1777716808 | 3.89° C | 48% | 1016.4 hPa | 0 mm | - | 0 W/m² | - |
| 1777716506 | 3.89° C | 47% | 1016.1 hPa | 0 mm | - | 0 W/m² | - |
| 1777716206 | 4.44° C | 46% | 1015.9 hPa | 0 mm | - | 0 W/m² | - |
| 1777715902 | 4.44° C | 46% | 1015.7 hPa | 0 mm | - | 0 W/m² | - |
| 1777715600 | 4.44° C | 46% | 1015.8 hPa | 0 mm | - | 0 W/m² | - |
| 1777715298 | 3.89° C | 47% | 1015.6 hPa | 0 mm | - | 0 W/m² | - |
| 1777714995 | 3.89° C | 49% | 1015.8 hPa | 0 mm | - | 0 W/m² | - |
| 1777714693 | 3.89° C | 48% | 1015.8 hPa | 0 mm | - | 0 W/m² | - |
| 1777714391 | 3.89° C | 47% | 1015.8 hPa | 0 mm | - | 0 W/m² | - |
| 1777714089 | 4.44° C | 45% | 1015.8 hPa | 0 mm | - | 0 W/m² | - |
| 1777713786 | 4.44° C | 45% | 1015.6 hPa | 0 mm | - | 0 W/m² | - |
| 1777713483 | 4.44° C | 45% | 1015.7 hPa | 0 mm | - | 0 W/m² | - |
| 1777713179 | 4.44° C | 44% | 1015.6 hPa | 0 mm | - | 0 W/m² | - |
| 1777712876 | 5° C | 43% | 1015.4 hPa | 0 mm | - | 0 W/m² | - |
| 1777712573 | 4.44° C | 44% | 1015.5 hPa | 0 mm | - | 0 W/m² | - |
| 1777712269 | 5° C | 43% | 1015.5 hPa | 0 mm | - | 0 W/m² | - |
| 1777711966 | 5° C | 42% | 1015.7 hPa | 0 mm | - | 0 W/m² | - |
| 1777711664 | 5.56° C | 40% | 1015.5 hPa | 0 mm | - | 0 W/m² | - |
* Rain latest hour (hover to see other rain measurements)
** Current wind speed in m/s (hover to see current wind gust speed)